PRIVATE WETTERSTATION BILLIGHEIM-ALLFELD                       ZURCK
Wetterdaten: Donnerstag, 11.08.2016
Datum Zeit Temp. A. Temp. A. min Temp. A. max Feuchte A. Luftdruck Regen Wind Richtung Richtung Sonnenschein ET Solar Taupunkt Windchill Windben Empfang
11.08.2016 00:00 9,9 C 9,9 C 10,1 C 88 % 1022,1 hPa 0,0 l/m 0,0 km/h (0 Bft) N 0 0 min 0,000 mm 0 W/m 8,0 C 9,9 C 0,0 km/h (0 Bft) 100 %
11.08.2016 00:10 9,6 C 9,6 C 9,9 C 88 % 1022,1 hPa 0,0 l/m 0,0 km/h (0 Bft) N 0 0 min 0,000 mm 0 W/m 7,7 C 9,6 C 0,0 km/h (0 Bft) 100 %
11.08.2016 00:20 9,5 C 9,5 C 9,6 C 88 % 1022,1 hPa 0,0 l/m 0,0 km/h (0 Bft) N 0 0 min 0,000 mm 0 W/m 7,6 C 9,5 C 0,0 km/h (0 Bft) 100 %
11.08.2016 00:30 9,4 C 9,4 C 9,5 C 88 % 1022,2 hPa 0,0 l/m 0,0 km/h (0 Bft) N 0 0 min 0,000 mm 0 W/m 7,5 C 9,4 C 0,0 km/h (0 Bft) 99 %
11.08.2016 00:40 9,3 C 9,3 C 9,4 C 89 % 1022,1 hPa 0,0 l/m 0,0 km/h (0 Bft) N 0 0 min 0,000 mm 0 W/m 7,6 C 9,3 C 0,0 km/h (0 Bft) 100 %
11.08.2016 00:50 9,2 C 9,2 C 9,3 C 89 % 1022,1 hPa 0,0 l/m 0,0 km/h (0 Bft) N 0 0 min 0,000 mm 0 W/m 7,5 C 9,2 C 0,0 km/h (0 Bft) 100 %
11.08.2016 01:00 8,9 C 8,9 C 9,2 C 89 % 1022,5 hPa 0,0 l/m 0,0 km/h (0 Bft) N 0 0 min 0,000 mm 0 W/m 7,2 C 8,9 C 0,0 km/h (0 Bft) 100 %
11.08.2016 01:10 8,8 C 8,8 C 8,9 C 89 % 1022,4 hPa 0,0 l/m 0,0 km/h (0 Bft) N 0 0 min 0,000 mm 0 W/m 7,1 C 8,8 C 0,0 km/h (0 Bft) 99 %
11.08.2016 01:20 8,8 C 8,7 C 8,8 C 89 % 1022,5 hPa 0,0 l/m 0,0 km/h (0 Bft) N 360 0 min 0,000 mm 0 W/m 7,1 C 8,8 C 1,6 km/h (1 Bft) 100 %
11.08.2016 01:30 8,7 C 8,7 C 8,8 C 89 % 1022,4 hPa 0,0 l/m 0,0 km/h (0 Bft) N 0 0 min 0,000 mm 0 W/m 7,0 C 8,7 C 0,0 km/h (0 Bft) 100 %
11.08.2016 01:40 8,6 C 8,6 C 8,7 C 89 % 1022,3 hPa 0,0 l/m 0,0 km/h (0 Bft) N 0 0 min 0,000 mm 0 W/m 6,9 C 8,6 C 0,0 km/h (0 Bft) 100 %
11.08.2016 01:50 8,5 C 8,5 C 8,6 C 90 % 1022,3 hPa 0,0 l/m 0,0 km/h (0 Bft) N 0 0 min 0,000 mm 0 W/m 7,0 C 8,5 C 0,0 km/h (0 Bft) 100 %
11.08.2016 02:00 8,4 C 8,4 C 8,5 C 89 % 1022,5 hPa 0,0 l/m 0,0 km/h (0 Bft) N 0 0 min 0,000 mm 0 W/m 6,7 C 8,4 C 0,0 km/h (0 Bft) 100 %
11.08.2016 02:10 8,3 C 8,3 C 8,4 C 90 % 1022,4 hPa 0,0 l/m 0,0 km/h (0 Bft) N 0 0 min 0,000 mm 0 W/m 6,8 C 8,3 C 0,0 km/h (0 Bft) 100 %
11.08.2016 02:20 8,2 C 8,2 C 8,3 C 90 % 1022,3 hPa 0,0 l/m 0,0 km/h (0 Bft) N 0 0 min 0,000 mm 0 W/m 6,7 C 8,2 C 0,0 km/h (0 Bft) 100 %
11.08.2016 02:30 8,1 C 8,1 C 8,2 C 90 % 1022,4 hPa 0,0 l/m 0,0 km/h (0 Bft) N 0 0 min 0,000 mm 0 W/m 6,6 C 8,1 C 0,0 km/h (0 Bft) 100 %
11.08.2016 02:40 8,1 C 8,1 C 8,1 C 90 % 1022,3 hPa 0,0 l/m 0,0 km/h (0 Bft) N 0 0 min 0,000 mm 0 W/m 6,6 C 8,1 C 0,0 km/h (0 Bft) 100 %
11.08.2016 02:50 7,8 C 7,8 C 8,1 C 90 % 1022,2 hPa 0,0 l/m 0,0 km/h (0 Bft) N 0 0 min 0,000 mm 0 W/m 6,3 C 7,8 C 0,0 km/h (0 Bft) 98 %
11.08.2016 03:00 7,6 C 7,6 C 7,8 C 90 % 1022,3 hPa 0,0 l/m 0,0 km/h (0 Bft) N 0 0 min 0,000 mm 0 W/m 6,1 C 7,6 C 0,0 km/h (0 Bft) 100 %
11.08.2016 03:10 7,4 C 7,4 C 7,6 C 94 % 1022,4 hPa 0,0 l/m 0,0 km/h (0 Bft) N 0 0 min 0,000 mm 0 W/m 6,5 C 7,4 C 0,0 km/h (0 Bft) 99 %
11.08.2016 03:20 7,3 C 7,3 C 7,4 C 90 % 1022,5 hPa 0,0 l/m 0,0 km/h (0 Bft) N 0 0 min 0,000 mm 0 W/m 5,8 C 7,3 C 0,0 km/h (0 Bft) 91 %
11.08.2016 03:30 7,2 C 7,2 C 7,3 C 90 % 1022,5 hPa 0,0 l/m 0,0 km/h (0 Bft) N 0 0 min 0,000 mm 0 W/m 5,7 C 7,2 C 0,0 km/h (0 Bft) 100 %
11.08.2016 03:40 7,1 C 7,1 C 7,2 C 90 % 1022,7 hPa 0,0 l/m 0,0 km/h (0 Bft) N 0 0 min 0,000 mm 0 W/m 5,6 C 7,1 C 0,0 km/h (0 Bft) 100 %
11.08.2016 03:50 7,1 C 7,0 C 7,1 C 90 % 1022,8 hPa 0,0 l/m 0,0 km/h (0 Bft) N 0 0 min 0,000 mm 0 W/m 5,6 C 7,1 C 0,0 km/h (0 Bft) 100 %
11.08.2016 04:00 7,1 C 7,0 C 7,1 C 91 % 1022,8 hPa 0,0 l/m 0,0 km/h (0 Bft) N 0 0 min 0,000 mm 0 W/m 5,7 C 7,1 C 0,0 km/h (0 Bft) 100 %
11.08.2016 04:10 7,1 C 7,1 C 7,1 C 91 % 1022,9 hPa 0,0 l/m 0,0 km/h (0 Bft) N 0 0 min 0,000 mm 0 W/m 5,7 C 7,1 C 0,0 km/h (0 Bft) 100 %
11.08.2016 04:20 7,0 C 7,0 C 7,1 C 91 % 1022,9 hPa 0,0 l/m 0,0 km/h (0 Bft) N 0 0 min 0,000 mm 0 W/m 5,6 C 7,0 C 0,0 km/h (0 Bft) 100 %
11.08.2016 04:30 6,8 C 6,8 C 7,0 C 90 % 1023,0 hPa 0,0 l/m 0,0 km/h (0 Bft) N 0 0 min 0,000 mm 0 W/m 5,3 C 6,8 C 0,0 km/h (0 Bft) 99 %
11.08.2016 04:40 6,6 C 6,6 C 6,8 C 90 % 1023,1 hPa 0,0 l/m 0,0 km/h (0 Bft) N 0 0 min 0,000 mm 0 W/m 5,1 C 6,6 C 0,0 km/h (0 Bft) 100 %
11.08.2016 04:50 6,3 C 6,3 C 6,6 C 90 % 1023,0 hPa 0,0 l/m 0,0 km/h (0 Bft) N 0 0 min 0,000 mm 0 W/m 4,8 C 6,3 C 0,0 km/h (0 Bft) 100 %
11.08.2016 05:00 6,2 C 6,2 C 6,3 C 91 % 1023,1 hPa 0,0 l/m 0,0 km/h (0 Bft) N 0 0 min 0,000 mm 0 W/m 4,8 C 6,2 C 0,0 km/h (0 Bft) 100 %
11.08.2016 05:10 6,1 C 6,1 C 6,2 C 90 % 1023,1 hPa 0,0 l/m 0,0 km/h (0 Bft) N 0 0 min 0,000 mm 0 W/m 4,6 C 6,1 C 0,0 km/h (0 Bft) 100 %
11.08.2016 05:20 5,9 C 5,9 C 6,1 C 91 % 1023,1 hPa 0,0 l/m 0,0 km/h (0 Bft) N 0 0 min 0,000 mm 0 W/m 4,5 C 5,9 C 0,0 km/h (0 Bft) 100 %
11.08.2016 05:30 5,9 C 5,9 C 5,9 C 91 % 1023,2 hPa 0,0 l/m 0,0 km/h (0 Bft) N 0 0 min 0,000 mm 0 W/m 4,5 C 5,9 C 0,0 km/h (0 Bft) 89 %
11.08.2016 05:40 5,9 C 5,9 C 5,9 C 91 % 1023,3 hPa 0,0 l/m 0,0 km/h (0 Bft) N 0 0 min 0,000 mm 0 W/m 4,5 C 5,9 C 0,0 km/h (0 Bft) 100 %
11.08.2016 05:50 5,9 C 5,9 C 5,9 C 91 % 1023,3 hPa 0,0 l/m 0,0 km/h (0 Bft) N 0 0 min 0,000 mm 0 W/m 4,5 C 5,9 C 0,0 km/h (0 Bft) 99 %
11.08.2016 06:00 6,0 C 5,9 C 6,0 C 91 % 1023,4 hPa 0,0 l/m 0,0 km/h (0 Bft) N 0 0 min 0,000 mm 0 W/m 4,6 C 6,0 C 0,0 km/h (0 Bft) 100 %
11.08.2016 06:10 6,1 C 6,0 C 6,1 C 91 % 1023,4 hPa 0,0 l/m 0,0 km/h (0 Bft) N 0 0 min 0,000 mm 0 W/m 4,7 C 6,1 C 0,0 km/h (0 Bft) 100 %
11.08.2016 06:20 6,3 C 6,2 C 6,3 C 91 % 1023,6 hPa 0,0 l/m 0,0 km/h (0 Bft) N 0 0 min 0,000 mm 5 W/m 4,9 C 6,3 C 0,0 km/h (0 Bft) 100 %
11.08.2016 06:30 6,4 C 6,3 C 6,4 C 91 % 1023,8 hPa 0,0 l/m 0,0 km/h (0 Bft) N 0 0 min 0,000 mm 12 W/m 5,0 C 6,4 C 0,0 km/h (0 Bft) 100 %
11.08.2016 06:40 6,6 C 6,4 C 6,6 C 91 % 1023,9 hPa 0,0 l/m 0,0 km/h (0 Bft) N 0 0 min 0,000 mm 16 W/m 5,2 C 6,6 C 0,0 km/h (0 Bft) 100 %
11.08.2016 06:50 6,6 C 6,6 C 6,6 C 91 % 1023,9 hPa 0,0 l/m 0,0 km/h (0 Bft) N 0 0 min 0,000 mm 21 W/m 5,2 C 6,6 C 0,0 km/h (0 Bft) 100 %
11.08.2016 07:00 6,7 C 6,6 C 6,7 C 91 % 1023,9 hPa 0,0 l/m 0,0 km/h (0 Bft) N 0 0 min 0,000 mm 33 W/m 5,3 C 6,7 C 0,0 km/h (0 Bft) 100 %
11.08.2016 07:10 6,8 C 6,7 C 6,8 C 91 % 1023,9 hPa 0,0 l/m 0,0 km/h (0 Bft) N 0 0 min 0,000 mm 42 W/m 5,4 C 6,8 C 0,0 km/h (0 Bft) 100 %
11.08.2016 07:20 6,9 C 6,8 C 6,9 C 91 % 1024,0 hPa 0,0 l/m 0,0 km/h (0 Bft) N 0 0 min 0,000 mm 47 W/m 5,5 C 6,9 C 0,0 km/h (0 Bft) 100 %
11.08.2016 07:30 7,1 C 6,9 C 7,1 C 91 % 1024,1 hPa 0,0 l/m 0,0 km/h (0 Bft) N 360 0 min 0,000 mm 54 W/m 5,7 C 7,1 C 1,6 km/h (1 Bft) 100 %
11.08.2016 07:40 7,3 C 7,1 C 7,3 C 91 % 1024,1 hPa 0,0 l/m 0,0 km/h (0 Bft) N 0 0 min 0,000 mm 63 W/m 5,9 C 7,3 C 0,0 km/h (0 Bft) 100 %
11.08.2016 07:50 7,4 C 7,3 C 7,4 C 91 % 1024,2 hPa 0,0 l/m 0,0 km/h (0 Bft) W 270 0 min 0,000 mm 62 W/m 6,0 C 7,4 C 1,6 km/h (1 Bft) 100 %
11.08.2016 08:00 7,3 C 7,3 C 7,4 C 91 % 1024,2 hPa 0,0 l/m 0,0 km/h (0 Bft) SW 225 0 min 0,025 mm 72 W/m 5,9 C 7,3 C 1,6 km/h (1 Bft) 100 %
11.08.2016 08:10 7,3 C 7,3 C 7,4 C 91 % 1024,3 hPa 0,0 l/m 0,0 km/h (0 Bft) N 0 0 min 0,000 mm 76 W/m 5,9 C 7,3 C 0,0 km/h (0 Bft) 100 %
11.08.2016 08:20 7,4 C 7,3 C 7,4 C 91 % 1024,6 hPa 0,0 l/m 0,0 km/h (0 Bft) SW 225 0 min 0,000 mm 102 W/m 6,0 C 7,4 C 1,6 km/h (1 Bft) 100 %
11.08.2016 08:30 7,4 C 7,4 C 7,4 C 91 % 1024,6 hPa 0,0 l/m 0,0 km/h (0 Bft) N 0 0 min 0,000 mm 107 W/m 6,0 C 7,4 C 0,0 km/h (0 Bft) 100 %
11.08.2016 08:40 7,7 C 7,4 C 7,7 C 91 % 1024,7 hPa 0,0 l/m 0,0 km/h (0 Bft) SW 225 0 min 0,000 mm 121 W/m 6,3 C 7,7 C 1,6 km/h (1 Bft) 100 %
11.08.2016 08:50 8,1 C 7,7 C 8,1 C 91 % 1024,7 hPa 0,0 l/m 0,0 km/h (0 Bft) N 0 0 min 0,000 mm 137 W/m 6,7 C 8,1 C 0,0 km/h (0 Bft) 99 %
11.08.2016 09:00 8,2 C 8,1 C 8,2 C 91 % 1024,6 hPa 0,0 l/m 0,0 km/h (0 Bft) S-SW 202 0 min 0,051 mm 137 W/m 6,8 C 8,2 C 1,6 km/h (1 Bft) 100 %
11.08.2016 09:10 8,3 C 8,2 C 8,3 C 91 % 1024,6 hPa 0,0 l/m 1,6 km/h (1 Bft) S 180 10 min 0,000 mm 158 W/m 6,9 C 8,3 C 8,0 km/h (2 Bft) 100 %
11.08.2016 09:20 8,4 C 8,3 C 8,4 C 91 % 1024,7 hPa 0,0 l/m 0,0 km/h (0 Bft) S 180 10 min 0,000 mm 160 W/m 7,0 C 8,4 C 1,6 km/h (1 Bft) 100 %
11.08.2016 09:30 8,7 C 8,4 C 8,7 C 91 % 1024,7 hPa 0,0 l/m 1,6 km/h (1 Bft) S-SW 202 10 min 0,000 mm 172 W/m 7,3 C 8,7 C 6,4 km/h (2 Bft) 100 %
11.08.2016 09:40 8,7 C 8,7 C 8,8 C 91 % 1024,7 hPa 0,0 l/m 1,6 km/h (1 Bft) S-SW 202 10 min 0,000 mm 211 W/m 7,3 C 8,7 C 6,4 km/h (2 Bft) 100 %
11.08.2016 09:50 8,9 C 8,7 C 8,9 C 91 % 1024,8 hPa 0,0 l/m 0,0 km/h (0 Bft) SO 135 10 min 0,000 mm 227 W/m 7,5 C 8,9 C 1,6 km/h (1 Bft) 100 %
11.08.2016 10:00 9,2 C 8,9 C 9,2 C 91 % 1024,7 hPa 0,0 l/m 0,0 km/h (0 Bft) N 0 10 min 0,076 mm 227 W/m 7,8 C 9,2 C 0,0 km/h (0 Bft) 100 %
11.08.2016 10:10 9,4 C 9,2 C 9,4 C 91 % 1024,8 hPa 0,0 l/m 0,0 km/h (0 Bft) SW 225 10 min 0,000 mm 207 W/m 8,0 C 9,4 C 8,0 km/h (2 Bft) 100 %
11.08.2016 10:20 9,6 C 9,4 C 9,6 C 91 % 1024,8 hPa 0,0 l/m 0,0 km/h (0 Bft) SW 225 10 min 0,000 mm 809 W/m 8,2 C 9,6 C 4,8 km/h (1 Bft) 91 %
11.08.2016 10:30 11,3 C 9,7 C 11,3 C 91 % 1024,8 hPa 0,0 l/m 0,0 km/h (0 Bft) S-SW 202 10 min 0,000 mm 805 W/m 9,9 C 11,3 C 8,0 km/h (2 Bft) 100 %
11.08.2016 10:40 11,9 C 11,3 C 11,9 C 91 % 1024,8 hPa 0,0 l/m 0,0 km/h (0 Bft) S-SW 202 10 min 0,000 mm 784 W/m 10,5 C 11,9 C 1,6 km/h (1 Bft) 100 %
11.08.2016 10:50 12,3 C 11,9 C 12,3 C 89 % 1024,7 hPa 0,0 l/m 0,0 km/h (0 Bft) S-SW 202 10 min 0,000 mm 766 W/m 10,5 C 12,3 C 1,6 km/h (1 Bft) 100 %
11.08.2016 11:00 13,1 C 12,3 C 13,1 C 84 % 1024,6 hPa 0,0 l/m 0,0 km/h (0 Bft) S-SW 202 10 min 0,254 mm 726 W/m 10,5 C 13,1 C 8,0 km/h (2 Bft) 100 %
11.08.2016 11:10 13,6 C 13,1 C 13,6 C 82 % 1024,6 hPa 0,0 l/m 0,0 km/h (0 Bft) S 180 10 min 0,000 mm 749 W/m 10,6 C 13,6 C 11,3 km/h (2 Bft) 100 %
11.08.2016 11:20 14,4 C 13,6 C 14,4 C 81 % 1024,5 hPa 0,0 l/m 1,6 km/h (1 Bft) S-SW 202 10 min 0,000 mm 766 W/m 11,2 C 14,4 C 11,3 km/h (2 Bft) 100 %
11.08.2016 11:30 15,4 C 14,4 C 15,4 C 76 % 1024,6 hPa 0,0 l/m 1,6 km/h (1 Bft) SW 225 10 min 0,000 mm 775 W/m 11,2 C 15,4 C 9,7 km/h (2 Bft) 100 %
11.08.2016 11:40 15,8 C 15,4 C 15,9 C 71 % 1024,4 hPa 0,0 l/m 3,2 km/h (1 Bft) W-NW 292 10 min 0,000 mm 796 W/m 10,6 C 15,8 C 9,7 km/h (2 Bft) 100 %
11.08.2016 11:50 16,4 C 15,9 C 16,4 C 72 % 1024,4 hPa 0,0 l/m 3,2 km/h (1 Bft) W-NW 292 10 min 0,000 mm 823 W/m 11,3 C 16,4 C 16,1 km/h (3 Bft) 100 %
11.08.2016 12:00 16,6 C 16,4 C 16,6 C 69 % 1024,2 hPa 0,0 l/m 3,2 km/h (1 Bft) W-SW 247 10 min 0,381 mm 849 W/m 10,9 C 16,6 C 11,3 km/h (2 Bft) 100 %
11.08.2016 12:10 16,7 C 16,5 C 16,7 C 64 % 1024,2 hPa 0,0 l/m 6,4 km/h (2 Bft) S-SW 202 10 min 0,000 mm 904 W/m 9,9 C 16,7 C 20,9 km/h (4 Bft) 100 %
11.08.2016 12:20 16,8 C 16,7 C 16,8 C 66 % 1024,0 hPa 0,0 l/m 4,8 km/h (1 Bft) W-SW 247 10 min 0,000 mm 976 W/m 10,4 C 16,8 C 14,5 km/h (3 Bft) 100 %
11.08.2016 12:30 17,2 C 16,8 C 17,2 C 60 % 1024,0 hPa 0,0 l/m 4,8 km/h (1 Bft) W-SW 247 10 min 0,000 mm 1005 W/m 9,4 C 17,2 C 16,1 km/h (3 Bft) 100 %
11.08.2016 12:40 17,1 C 17,1 C 17,3 C 63 % 1024,0 hPa 0,0 l/m 6,4 km/h (2 Bft) S-SW 202 10 min 0,000 mm 1002 W/m 10,0 C 17,1 C 14,5 km/h (3 Bft) 100 %
11.08.2016 12:50 17,4 C 17,1 C 17,4 C 62 % 1024,0 hPa 0,0 l/m 6,4 km/h (2 Bft) W-SW 247 10 min 0,000 mm 998 W/m 10,0 C 17,4 C 16,1 km/h (3 Bft) 100 %
11.08.2016 13:00 18,2 C 17,4 C 18,2 C 62 % 1023,9 hPa 0,0 l/m 8,0 km/h (2 Bft) S-SW 202 10 min 0,457 mm 1004 W/m 10,8 C 17,5 C 20,9 km/h (4 Bft) 100 %
11.08.2016 13:10 18,2 C 18,1 C 18,2 C 59 % 1023,9 hPa 0,0 l/m 8,0 km/h (2 Bft) S-SW 202 10 min 0,000 mm 1028 W/m 10,1 C 17,5 C 19,3 km/h (3 Bft) 100 %
11.08.2016 13:20 18,1 C 18,1 C 18,3 C 59 % 1023,7 hPa 0,0 l/m 8,0 km/h (2 Bft) S-SW 202 10 min 0,000 mm 1013 W/m 10,0 C 17,4 C 19,3 km/h (3 Bft) 100 %
11.08.2016 13:30 18,3 C 18,1 C 18,3 C 58 % 1023,7 hPa 0,0 l/m 8,0 km/h (2 Bft) S-SW 202 10 min 0,000 mm 1005 W/m 9,9 C 17,6 C 19,3 km/h (3 Bft) 100 %
11.08.2016 13:40 18,3 C 18,3 C 18,3 C 59 % 1023,6 hPa 0,0 l/m 8,0 km/h (2 Bft) S-SW 202 10 min 0,000 mm 1025 W/m 10,1 C 17,6 C 17,7 km/h (3 Bft) 100 %
11.08.2016 13:50 18,3 C 18,2 C 18,3 C 59 % 1023,5 hPa 0,0 l/m 6,4 km/h (2 Bft) S-SW 202 10 min 0,000 mm 1021 W/m 10,1 C 18,3 C 20,9 km/h (4 Bft) 100 %
11.08.2016 14:00 18,6 C 18,3 C 18,6 C 55 % 1023,5 hPa 0,0 l/m 8,0 km/h (2 Bft) S-SW 202 10 min 0,533 mm 1042 W/m 9,4 C 17,9 C 20,9 km/h (4 Bft) 100 %
11.08.2016 14:10 18,6 C 18,6 C 18,7 C 56 % 1023,4 hPa 0,0 l/m 8,0 km/h (2 Bft) W-NW 292 10 min 0,000 mm 490 W/m 9,6 C 17,9 C 17,7 km/h (3 Bft) 100 %
11.08.2016 14:20 18,6 C 18,5 C 18,6 C 54 % 1023,5 hPa 0,0 l/m 9,7 km/h (2 Bft) W 270 10 min 0,000 mm 963 W/m 9,1 C 17,2 C 19,3 km/h (3 Bft) 100 %
11.08.2016 14:30 18,6 C 18,6 C 18,7 C 55 % 1023,5 hPa 0,0 l/m 4,8 km/h (1 Bft) W 270 10 min 0,000 mm 902 W/m 9,4 C 18,6 C 16,1 km/h (3 Bft) 100 %
11.08.2016 14:40 18,4 C 18,4 C 18,6 C 57 % 1023,4 hPa 0,0 l/m 6,4 km/h (2 Bft) W 270 10 min 0,000 mm 937 W/m 9,7 C 18,4 C 19,3 km/h (3 Bft) 100 %
11.08.2016 14:50 18,6 C 18,3 C 18,6 C 53 % 1023,2 hPa 0,0 l/m 4,8 km/h (1 Bft) W 270 10 min 0,000 mm 904 W/m 8,8 C 18,6 C 16,1 km/h (3 Bft) 100 %
11.08.2016 15:00 18,9 C 18,6 C 18,9 C 52 % 1023,1 hPa 0,0 l/m 8,0 km/h (2 Bft) W-SW 247 10 min 0,406 mm 939 W/m 8,8 C 18,2 C 24,1 km/h (4 Bft) 100 %
11.08.2016 15:10 19,3 C 18,9 C 19,3 C 53 % 1023,1 hPa 0,0 l/m 6,4 km/h (2 Bft) W-NW 292 10 min 0,000 mm 780 W/m 9,5 C 19,3 C 22,5 km/h (4 Bft) 100 %
11.08.2016 15:20 19,5 C 19,3 C 19,5 C 53 % 1023,0 hPa 0,0 l/m 9,7 km/h (2 Bft) SW 225 10 min 0,000 mm 438 W/m 9,7 C 18,2 C 22,5 km/h (4 Bft) 100 %
11.08.2016 15:30 19,7 C 19,6 C 19,7 C 52 % 1022,9 hPa 0,0 l/m 8,0 km/h (2 Bft) W 270 10 min 0,000 mm 353 W/m 9,6 C 19,0 C 20,9 km/h (4 Bft) 99 %
11.08.2016 15:40 19,4 C 19,4 C 19,8 C 50 % 1023,0 hPa 0,0 l/m 9,7 km/h (2 Bft) W-NW 292 10 min 0,000 mm 306 W/m 8,7 C 18,1 C 20,9 km/h (4 Bft) 99 %
11.08.2016 15:50 19,1 C 19,1 C 19,4 C 53 % 1022,9 hPa 0,0 l/m 6,4 km/h (2 Bft) W-SW 247 10 min 0,000 mm 301 W/m 9,3 C 19,1 C 17,7 km/h (3 Bft) 100 %
11.08.2016 16:00 18,9 C 18,9 C 19,1 C 52 % 1022,8 hPa 0,0 l/m 8,0 km/h (2 Bft) W-NW 292 10 min 0,229 mm 299 W/m 8,8 C 18,2 C 19,3 km/h (3 Bft) 100 %
11.08.2016 16:10 18,8 C 18,8 C 19,1 C 51 % 1022,8 hPa 0,0 l/m 9,7 km/h (2 Bft) W-SW 247 10 min 0,000 mm 251 W/m 8,4 C 17,4 C 20,9 km/h (4 Bft) 100 %
11.08.2016 16:20 18,6 C 18,6 C 18,8 C 51 % 1022,6 hPa 0,0 l/m 9,7 km/h (2 Bft) SW 225 10 min 0,000 mm 244 W/m 8,3 C 17,2 C 25,7 km/h (4 Bft) 100 %
11.08.2016 16:30 18,8 C 18,6 C 18,8 C 52 % 1022,6 hPa 0,0 l/m 8,0 km/h (2 Bft) W-NW 292 10 min 0,000 mm 336 W/m 8,7 C 18,1 C 22,5 km/h (4 Bft) 100 %
11.08.2016 16:40 18,8 C 18,8 C 18,9 C 49 % 1022,6 hPa 0,0 l/m 11,3 km/h (2 Bft) W-NW 292 10 min 0,000 mm 257 W/m 7,9 C 16,9 C 22,5 km/h (4 Bft) 100 %
11.08.2016 16:50 18,7 C 18,7 C 18,8 C 51 % 1022,6 hPa 0,0 l/m 8,0 km/h (2 Bft) W 270 10 min 0,000 mm 269 W/m 8,4 C 18,0 C 19,3 km/h (3 Bft) 100 %
11.08.2016 17:00 18,8 C 18,7 C 18,8 C 51 % 1022,5 hPa 0,0 l/m 9,7 km/h (2 Bft) W 270 10 min 0,203 mm 220 W/m 8,4 C 17,4 C 17,7 km/h (3 Bft) 100 %
11.08.2016 17:10 18,7 C 18,7 C 18,8 C 51 % 1022,5 hPa 0,0 l/m 8,0 km/h (2 Bft) W 270 10 min 0,000 mm 218 W/m 8,4 C 18,0 C 20,9 km/h (4 Bft) 100 %
11.08.2016 17:20 18,6 C 18,6 C 18,7 C 53 % 1022,4 hPa 0,0 l/m 8,0 km/h (2 Bft) W 270 10 min 0,000 mm 185 W/m 8,8 C 17,9 C 17,7 km/h (3 Bft) 100 %
11.08.2016 17:30 18,6 C 18,6 C 18,7 C 53 % 1022,3 hPa 0,0 l/m 8,0 km/h (2 Bft) W-SW 247 10 min 0,000 mm 165 W/m 8,8 C 17,9 C 19,3 km/h (3 Bft) 100 %
11.08.2016 17:40 18,5 C 18,5 C 18,6 C 55 % 1022,1 hPa 0,0 l/m 8,0 km/h (2 Bft) W 270 0 min 0,000 mm 149 W/m 9,3 C 17,8 C 20,9 km/h (4 Bft) 100 %
11.08.2016 17:50 18,2 C 18,2 C 18,5 C 55 % 1022,2 hPa 0,0 l/m 8,0 km/h (2 Bft) W 270 10 min 0,000 mm 163 W/m 9,0 C 17,5 C 30,6 km/h (5 Bft) 100 %
11.08.2016 18:00 17,9 C 17,9 C 18,2 C 57 % 1022,1 hPa 0,0 l/m 4,8 km/h (1 Bft) W-SW 247 10 min 0,152 mm 162 W/m 9,3 C 17,9 C 17,7 km/h (3 Bft) 100 %
11.08.2016 18:10 17,7 C 17,7 C 17,9 C 58 % 1022,1 hPa 0,0 l/m 4,8 km/h (1 Bft) SW 225 10 min 0,000 mm 172 W/m 9,3 C 17,7 C 14,5 km/h (3 Bft) 100 %
11.08.2016 18:20 17,7 C 17,7 C 17,7 C 58 % 1022,1 hPa 0,0 l/m 4,8 km/h (1 Bft) W 270 10 min 0,000 mm 172 W/m 9,3 C 17,7 C 14,5 km/h (3 Bft) 100 %
11.08.2016 18:30 17,7 C 17,7 C 17,7 C 59 % 1022,0 hPa 0,0 l/m 4,8 km/h (1 Bft) SW 225 10 min 0,000 mm 158 W/m 9,6 C 17,7 C 16,1 km/h (3 Bft) 100 %
11.08.2016 18:40 17,6 C 17,6 C 17,7 C 57 % 1021,9 hPa 0,0 l/m 5,8 km/h (2 Bft) W 279 0 min 0,002 mm 144 W/m 9,0 C 17,6 C 14,5 km/h (3 Bft) 98 %
11.08.2016 18:50 17,6 C 17,6 C 17,6 C 56 % 1022,0 hPa 0,0 l/m 5,3 km/h (1 Bft) W 281 0 min 0,000 mm 120 W/m 8,7 C 17,6 C 17,7 km/h (3 Bft) 98 %
11.08.2016 19:00 17,6 C 17,6 C 17,6 C 56 % 1022,0 hPa 0,0 l/m 7,0 km/h (2 Bft) W 259 0 min 0,127 mm 121 W/m 8,7 C 17,3 C 17,7 km/h (3 Bft) 98 %
11.08.2016 19:10 17,6 C 17,5 C 17,6 C 55 % 1022,0 hPa 0,0 l/m 6,9 km/h (2 Bft) W-NW 283 0 min 0,000 mm 111 W/m 8,5 C 17,4 C 14,5 km/h (3 Bft) 98 %
11.08.2016 19:20 17,5 C 17,5 C 17,6 C 53 % 1022,0 hPa 0,0 l/m 9,0 km/h (2 Bft) W 260 0 min 0,000 mm 116 W/m 7,8 C 16,3 C 20,9 km/h (4 Bft) 97 %
11.08.2016 19:30 17,4 C 17,4 C 17,5 C 53 % 1022,1 hPa 0,0 l/m 8,4 km/h (2 Bft) W 264 0 min 0,000 mm 97 W/m 7,7 C 16,4 C 20,9 km/h (4 Bft) 97 %
11.08.2016 19:40 17,2 C 17,2 C 17,4 C 55 % 1022,1 hPa 0,0 l/m 7,1 km/h (2 Bft) W 281 0 min 0,000 mm 62 W/m 8,1 C 16,9 C 16,1 km/h (3 Bft) 97 %
11.08.2016 19:50 17,1 C 17,0 C 17,2 C 56 % 1022,1 hPa 0,0 l/m 5,9 km/h (2 Bft) W 265 0 min 0,000 mm 35 W/m 8,3 C 17,1 C 14,5 km/h (3 Bft) 97 %
11.08.2016 20:00 16,8 C 16,8 C 17,1 C 56 % 1022,1 hPa 0,0 l/m 5,1 km/h (1 Bft) W-SW 258 0 min 0,101 mm 21 W/m 8,0 C 16,8 C 9,7 km/h (2 Bft) 97 %
11.08.2016 20:10 16,7 C 16,7 C 16,8 C 58 % 1022,1 hPa 0,0 l/m 1,6 km/h (1 Bft) W-SW 251 0 min 0,000 mm 21 W/m 8,4 C 16,7 C 9,7 km/h (2 Bft) 97 %
11.08.2016 20:20 16,4 C 16,4 C 16,7 C 60 % 1022,1 hPa 0,0 l/m 2,1 km/h (1 Bft) W-SW 249 0 min 0,000 mm 12 W/m 8,6 C 16,4 C 9,7 km/h (2 Bft) 97 %
11.08.2016 20:30 16,2 C 16,2 C 16,4 C 61 % 1022,1 hPa 0,0 l/m 1,5 km/h (1 Bft) SW 227 0 min 0,000 mm 5 W/m 8,7 C 16,2 C 8,0 km/h (2 Bft) 97 %
11.08.2016 20:40 16,1 C 16,1 C 16,3 C 61 % 1022,2 hPa 0,0 l/m 4,1 km/h (1 Bft) W 259 0 min 0,000 mm 0 W/m 8,6 C 16,1 C 9,7 km/h (2 Bft) 98 %
11.08.2016 20:50 15,9 C 15,9 C 16,1 C 60 % 1022,3 hPa 0,0 l/m 4,3 km/h (1 Bft) W 265 0 min 0,000 mm 0 W/m 8,1 C 15,9 C 14,5 km/h (3 Bft) 99 %
11.08.2016 21:00 15,8 C 15,8 C 15,9 C 60 % 1022,3 hPa 0,0 l/m 3,3 km/h (1 Bft) W-SW 252 0 min 0,026 mm 0 W/m 8,1 C 15,8 C 8,0 km/h (2 Bft) 99 %
11.08.2016 21:10 15,7 C 15,7 C 15,8 C 60 % 1022,5 hPa 0,0 l/m 3,2 km/h (1 Bft) W-SW 247 0 min 0,000 mm 0 W/m 8,0 C 15,7 C 12,9 km/h (3 Bft) 100 %
11.08.2016 21:20 15,6 C 15,6 C 15,7 C 61 % 1022,5 hPa 0,0 l/m 1,6 km/h (1 Bft) W 270 0 min 0,000 mm 0 W/m 8,1 C 15,6 C 9,7 km/h (2 Bft) 100 %
11.08.2016 21:30 15,4 C 15,4 C 15,6 C 62 % 1022,6 hPa 0,0 l/m 1,6 km/h (1 Bft) W 270 0 min 0,000 mm 0 W/m 8,2 C 15,4 C 8,0 km/h (2 Bft) 100 %
11.08.2016 21:40 15,3 C 15,3 C 15,4 C 63 % 1022,7 hPa 0,0 l/m 1,6 km/h (1 Bft) W-NW 292 0 min 0,000 mm 0 W/m 8,3 C 15,3 C 6,4 km/h (2 Bft) 100 %
11.08.2016 21:50 15,1 C 15,1 C 15,3 C 63 % 1022,7 hPa 0,0 l/m 1,6 km/h (1 Bft) W-NW 292 0 min 0,000 mm 0 W/m 8,1 C 15,1 C 6,4 km/h (2 Bft) 100 %
11.08.2016 22:00 15,1 C 15,1 C 15,1 C 63 % 1022,7 hPa 0,0 l/m 3,2 km/h (1 Bft) W-NW 292 0 min 0,025 mm 0 W/m 8,1 C 15,1 C 9,7 km/h (2 Bft) 100 %
11.08.2016 22:10 15,1 C 15,0 C 15,1 C 65 % 1022,6 hPa 0,0 l/m 1,6 km/h (1 Bft) W-NW 292 0 min 0,000 mm 0 W/m 8,6 C 15,1 C 9,7 km/h (2 Bft) 100 %
11.08.2016 22:20 14,8 C 14,8 C 15,1 C 67 % 1022,7 hPa 0,0 l/m 3,2 km/h (1 Bft) W 270 0 min 0,000 mm 0 W/m 8,7 C 14,8 C 8,0 km/h (2 Bft) 100 %
11.08.2016 22:30 14,7 C 14,7 C 14,8 C 69 % 1022,7 hPa 0,0 l/m 0,0 km/h (0 Bft) W 270 0 min 0,000 mm 0 W/m 9,1 C 14,7 C 4,8 km/h (1 Bft) 100 %
11.08.2016 22:40 14,4 C 14,4 C 14,7 C 69 % 1022,8 hPa 0,0 l/m 3,2 km/h (1 Bft) W 270 0 min 0,000 mm 0 W/m 8,8 C 14,4 C 8,0 km/h (2 Bft) 100 %
11.08.2016 22:50 14,2 C 14,2 C 14,4 C 72 % 1023,0 hPa 0,0 l/m 0,0 km/h (0 Bft) W 270 0 min 0,000 mm 0 W/m 9,2 C 14,2 C 4,8 km/h (1 Bft) 100 %
11.08.2016 23:00 14,1 C 14,1 C 14,2 C 74 % 1022,9 hPa 0,0 l/m 0,0 km/h (0 Bft) N 0 0 min 0,025 mm 0 W/m 9,5 C 14,1 C 0,0 km/h (0 Bft) 100 %
11.08.2016 23:10 13,8 C 13,8 C 14,1 C 74 % 1022,8 hPa 0,0 l/m 0,0 km/h (0 Bft) W 270 0 min 0,000 mm 0 W/m 9,2 C 13,8 C 1,6 km/h (1 Bft) 100 %
11.08.2016 23:20 13,6 C 13,6 C 13,8 C 76 % 1022,9 hPa 0,0 l/m 0,0 km/h (0 Bft) N 0 0 min 0,000 mm 0 W/m 9,4 C 13,6 C 0,0 km/h (0 Bft) 100 %
11.08.2016 23:30 13,4 C 13,4 C 13,6 C 78 % 1022,9 hPa 0,2 l/m 0,0 km/h (0 Bft) N 0 0 min 0,000 mm 0 W/m 9,6 C 13,4 C 0,0 km/h (0 Bft) 100 %
11.08.2016 23:40 13,2 C 13,2 C 13,4 C 79 % 1023,1 hPa 0,0 l/m 0,0 km/h (0 Bft) W 270 0 min 0,000 mm 0 W/m 9,6 C 13,2 C 1,6 km/h (1 Bft) 100 %
11.08.2016 23:50 12,9 C 12,9 C 13,2 C 82 % 1023,0 hPa 0,2 l/m 0,0 km/h (0 Bft) W 270 0 min 0,000 mm 0 W/m 9,9 C 12,9 C 1,6 km/h (1 Bft) 100 %
_ Min-Zeit 05:20 05:20 05:30 16:40 18:40 - 00:00 - - - - - 05:20 05:20 00:00 05:30
Minimum _ 5,9 C 5,9 C 5,9 C 49 % 1021,9 hPa - 0,0 km/h (0 Bft) - - - - - 4,5 C 5,9 C 0,0 km/h (0 Bft) 89 %
_ Max-Zeit 15:40 15:30 15:40 03:10 09:50 23:30 16:40 - - 09:10 14:00 14:00 11:50 15:10 17:50 00:10
Maximum _ 19,8 C 19,6 C 19,8 C 94 % 1024,8 hPa 0,2 l/m 11,3 km/h
W-NW (2 Bft)
- - 10 min 0,533 mm 1042 W/m 11,3 C 19,3 C 30,6 km/h
S-SW (5 Bft)
100 %
Durchschnitt _ 12,8 C 12,7 C 12,9 C 74 % 1023,1 hPa #0,4 l/m 2,8 km/h (1 Bft) W - #9:20 h #3,073 mm 404 W/m 7,9 C 12,6 C 8,3 km/h (2 Bft) 99 %
PRIVATE WETTERSTATION BILLIGHEIM-ALLFELD - www.neckar-odenwald-wetter.de - Holger Sonntag